STARLINK-36473, 67325

Orbit data source: Space-Track

STARLINK-36473, 67325 is a payload satellite owned by SpaceX/Seattle (US) in LEO that was launched on Sun, 04 Jan 2026 UTC via an FALCON 9 launch vehicle from the Air Force Eastern Test Range (AFETR). Payload-class satellites include a variety of spacecraft equipped with specific instruments for various scientific and technological missions. These include communications satellites like Starlink; space stations such as the ISS; scientific satellites like the Hubble; Earth observation satellites from companies like Planet Labs, Umbra, and HawkEye 360; GPS; miniature CubeSats for education and research; and military/defense satellites.

Loading next visibility...
Identifier
67325, 2026-002W
Orbit
LEO
Country
Flag of USUS
Related business
Manufacturer
SpaceX/Seattle
Mission
Operational Commercial Communications
Bus & Motor
STARLINK V2MO, Unknown motor
Mass
575 kg wet, ~530 kg dry
Launch date (UTC)
2026-01-04 (5 months ago)
Launch vehicle
FALCON 9
Launch site
Air Force Eastern Test Range (AFETR)
Object type
Payload
Rocket body
Debris
Shape & HBR
Box + 2 Pan, 17.7 m
Radar Cross Section
36.964 m², Large (>1 m²)

Expand to show TLE details & history
Last TLE update: 18 hours ago

TLE from 18 hours ago
0 STARLINK-36473
1 67325U 26002W   26171.17189036  .00005878  00000-0  22284-3 0  9994
2 67325  42.9961 106.3814 0001645 254.0617 106.0053 15.27598082 26910
Epoch: 2026-06-20T04:07Z
TLE epoch observation values (Epoch: 2026-06-20T04:07:31.327Z)
Latitude
-0.00003°
Longitude
136.11051°
Altitude
483.081 km
Speed
7.626 km/s
True Right ascension
07h 05m 31s
True Declination
0° 00' 00"
Sunlit
Object was in daylight at epoch
Visualization orbit readout
Latitude
Unknown
Longitude
Unknown
Altitude
Unknown
Speed
Unknown
Apparent Right ascension
Unknown
Apparent Declination
Unknown
Sunlit
N/A
Visualization observer readout
Local Sidereal Time
08:41:41
Azimuth
Unknown
Elevation
Unknown
Doppler factor
Unknown
Orbital elements
Apogee altitude
486.07 km
Perigee altitude
483.812 km
Semi-major axis
6,863.078 km
Eccentricity
0.00016
Inclination
42.9961°
RAAN
106.3814°
Arg. of periapsis
254.0617°
True anomaly
106.02342°
Mean anomaly
106.0053°
Eccentric anomaly
106.01436°
Mean motion
3.81737 °/min
Orbital period
94.31 mins
BSTAR
0.00022284
Loading maneuver chart data...
Computing Atmospheric mass density...
Loading historical data...
Loading historical data...
Loading historical data...
Loading historical data...
Loading historical data...
Loading historical data...
Loading historical data...

Documentation

Showing up to 5 results
|